Location: Ferintosh
(52.7647°N, 112.9692°W)
Time: 10:14:18
(UTC+00:00)

S-56A Canister/Altair - Pass Details

Date: 28 May 2024
Orbit: 637 x 2489 km, 38.9° (Epoch: 22 June)

Event Time Altitude Azimuth Distance (km) Brightness Sun altitude
Rises 17:51:48 0° 272° (W) 5,178 11.5 53.7°
Reaches altitude 10° 17:57:46 10° 250° (WSW) 3,721 11.0 54.3°
Maximum altitude 18:01:41 13° 225° (SW) 3,135 10.9 54.6°
Drops below altitude 10° 18:05:03 10° 198° (SSW) 3,102 11.1 54.9°
Sets 18:09:09 0° 172° (S) 3,706 11.5 55.3°
